TimeEET,TemperatureF,Dew PointF,Humidity,Sea Level PressureIn,VisibilityMPH,Wind Direction,Wind SpeedMPH,Gust SpeedMPH,PrecipitationIn,Events,Conditions,WindDirDegrees,DateUTC
12:00 AM,68.0,44.6,43,29.98,-9999.0,Calm,Calm,-,N/A,,Clear,0,2012-10-10 22:00:00
1:00 AM,64.4,42.8,45,29.98,-9999.0,Calm,Calm,-,N/A,,Clear,0,2012-10-10 23:00:00
2:00 AM,60.8,39.2,45,29.95,-9999.0,Calm,Calm,-,N/A,,Clear,0,2012-10-11 00:00:00
3:00 AM,59.0,41.0,51,29.95,-9999.0,Calm,Calm,-,N/A,,Clear,0,2012-10-11 01:00:00
4:00 AM,59.0,41.0,51,29.95,-9999.0,Calm,Calm,-,N/A,,Clear,0,2012-10-11 02:00:00
5:00 AM,59.0,42.8,55,29.95,-9999.0,Calm,Calm,-,N/A,,Clear,0,2012-10-11 03:00:00
6:00 AM,57.2,39.2,51,29.98,-9999.0,Calm,Calm,-,N/A,,Clear,0,2012-10-11 04:00:00
7:00 AM,62.6,44.6,52,29.98,-9999.0,Calm,Calm,-,N/A,,Clear,0,2012-10-11 05:00:00
8:00 AM,73.4,46.4,38,29.98,-9999.0,Calm,Calm,-,N/A,,Clear,0,2012-10-11 06:00:00
9:00 AM,77.0,46.4,34,30.01,-9999.0,Calm,Calm,-,N/A,,Clear,0,2012-10-11 07:00:00
10:00 AM,78.8,39.2,24,30.01,-9999.0,Calm,Calm,-,N/A,,Clear,0,2012-10-11 08:00:00
12:00 PM,82.4,37.4,20,29.98,-9999.0,West,2.3,-,N/A,,Clear,260,2012-10-11 10:00:00
1:00 PM,84.2,37.4,19,29.95,-9999.0,West,2.3,-,N/A,,Clear,270,2012-10-11 11:00:00
2:00 PM,84.2,39.2,20,29.95,-9999.0,Calm,Calm,-,N/A,,Clear,0,2012-10-11 12:00:00
3:00 PM,84.2,37.4,19,29.95,-9999.0,WNW,2.3,-,N/A,,Clear,300,2012-10-11 13:00:00
4:00 PM,84.2,35.6,18,29.95,-9999.0,WNW,2.3,-,N/A,,Clear,290,2012-10-11 14:00:00
5:00 PM,80.6,37.4,21,29.95,-9999.0,WNW,2.3,-,N/A,,Clear,290,2012-10-11 15:00:00
7:00 PM,80.6,37.4,21,29.95,-9999.0,West,2.3,-,N/A,,Clear,280,2012-10-11 17:00:00
8:00 PM,73.4,39.2,29,30.01,-9999.0,Calm,Calm,-,N/A,,Clear,0,2012-10-11 18:00:00
9:00 PM,71.6,39.2,31,30.01,-9999.0,Calm,Calm,-,N/A,,Clear,0,2012-10-11 19:00:00
10:00 PM,69.8,48.2,46,30.04,-9999.0,Calm,Calm,-,N/A,,Clear,0,2012-10-11 20:00:00